Starlink 35509

operational
NORAD ID: 66200 Int'l Des: 2025-243 Owner: SPXS Country: US Constellation: starlink
LEOCIRCULAR

About Starlink 35509

Description loading...

Live Position

Loading 3D Globe...

Upcoming Passes

Altitude History

Altitude vs Time

uPlot chart will show altitude changes over time

Two-Line Element Set

1 66200C 25243Y 25299.73381944 .00909400 00000+0 14729-2 0 2995
2 66200 53.1579 157.0832 0008738 275.5026 7.8260 16.01719503 12
Epoch: Oct 26, 2025 • Age: 121 hours

Current Status

Altitude 256.2 km
Velocity 7.75 km/s
Sub-Earth Point -48.73°S, 34.41°W
Launch Date Oct 26, 2025
Age 5 days
Type internet

Technical Details

Classification Payload
Mass 575.00 kg
Dry Mass 530.00 kg
Total Mass 575.00 kg
Length 0.30 m
Diameter 4.10 m
Span 29.00 m
Shape Box + pan
Manufacturer SPXS
Bus Type Starlink V2MO
Phase Status In Orbit
Owner/State SPXS/US

Large Constellations

Loading constellations...